TimeMST,TemperatureF,Dew PointF,Humidity,Sea Level PressureIn,VisibilityMPH,Wind Direction,Wind SpeedMPH,Gust SpeedMPH,PrecipitationIn,Events,Conditions,WindDirDegrees,DateUTC
12:56 AM,46.0,26.1,46,30.06,10.0,North,6.9,-,N/A,,Clear,10,2012-11-17 07:56:00
1:56 AM,46.9,28.0,48,30.04,10.0,NNE,8.1,-,N/A,,Clear,30,2012-11-17 08:56:00
2:56 AM,46.9,28.9,50,30.04,10.0,North,6.9,-,N/A,,Clear,10,2012-11-17 09:56:00
3:56 AM,50.0,30.9,48,30.04,10.0,Calm,Calm,-,N/A,,Clear,0,2012-11-17 10:56:00
4:56 AM,46.9,26.1,44,30.04,10.0,NE,3.5,-,N/A,,Mostly Cloudy,50,2012-11-17 11:56:00
5:56 AM,50.0,28.9,44,30.05,10.0,WSW,13.8,23.0,N/A,,Overcast,250,2012-11-17 12:56:00
6:56 AM,50.0,30.0,46,30.06,10.0,NE,8.1,-,0.00,,Overcast,40,2012-11-17 13:56:00
7:56 AM,52.0,30.0,43,30.09,10.0,WSW,5.8,-,N/A,,Mostly Cloudy,250,2012-11-17 14:56:00
8:56 AM,57.0,28.9,34,30.11,10.0,ENE,6.9,-,N/A,,Overcast,60,2012-11-17 15:56:00
9:56 AM,60.8,30.2,31,30.24,10.0,Calm,Calm,-,N/A,,Mostly Cloudy,0,2012-11-17 16:56:00
10:56 AM,64.9,27.0,24,30.11,10.0,East,4.6,-,N/A,,Overcast,90,2012-11-17 17:56:00
11:56 AM,68.0,28.9,23,30.08,10.0,SSW,4.6,-,N/A,,Clear,210,2012-11-17 18:56:00
12:56 PM,69.1,32.0,25,30.04,10.0,SSW,5.8,-,N/A,,Overcast,200,2012-11-17 19:56:00
1:56 PM,70.0,34.0,27,30.02,10.0,SSE,5.8,-,N/A,,Overcast,150,2012-11-17 20:56:00
2:56 PM,71.1,35.1,27,30.01,10.0,South,5.8,-,N/A,,Overcast,190,2012-11-17 21:56:00
3:56 PM,72.0,39.0,30,29.99,10.0,SW,13.8,-,N/A,,Overcast,230,2012-11-17 22:56:00
4:56 PM,70.0,37.9,31,30.00,10.0,SSW,5.8,-,N/A,,Overcast,200,2012-11-17 23:56:00
5:56 PM,66.9,41.0,39,30.01,10.0,SSW,10.4,-,0.00,,Overcast,200,2012-11-18 00:56:00
6:56 PM,64.9,43.0,45,30.03,10.0,WSW,13.8,-,N/A,,Overcast,250,2012-11-18 01:56:00
7:56 PM,61.0,46.9,60,30.04,10.0,NW,8.1,-,0.00,,Overcast,320,2012-11-18 02:56:00
8:56 PM,60.1,48.0,64,30.04,10.0,SW,3.5,-,N/A,,Overcast,230,2012-11-18 03:56:00
9:56 PM,59.0,46.9,64,30.04,10.0,North,3.5,-,N/A,,Overcast,10,2012-11-18 04:56:00
10:56 PM,57.9,48.9,72,30.04,10.0,NNW,5.8,-,0.00,,Overcast,340,2012-11-18 05:56:00
11:56 PM,57.9,48.0,70,30.04,10.0,NNW,10.4,-,N/A,,Overcast,340,2012-11-18 06:56:00